Regional Weather Roundup
Issued by NWS Upton, NY

Home | Current Version | Previous Version | Text Only | Print | Product List | Glossary On
Versions: 1 2 3 4 5 6 7 8 9 10 11 12 13 14 15 16 17 18 19 20 21 22 23 24 25 26 27
000
ASUS41 KOKX 281209
RWROKX

REGIONAL WEATHER ROUNDUP
NATIONAL WEATHER SERVICE NEW YORK NY
800 AM EDT SUN MAY 28 2017

NOTE: "FAIR" INDICATES FEW OR NO CLOUDS BELOW 12,000 FEET WITH NO
SIGNIFICANT WEATHER AND/OR OBSTRUCTIONS TO VISIBILITY.

NYZ071-072-176-178-NJZ106-104-281300-
NEW YORK CITY METRO AREA

CITY           SKY/WX    TMP DP  RH WIND       PRES   REMARKS
Central Park   CLOUDY    61  57  87 VRB5      29.97R FOG
Wall St Helipt CLOUDY    61  57  88 NE6       29.96R
Bronx Bot Gard   N/A     59  55  88 E3        29.97R
LaGuardia APRT CLOUDY    60  57  89 E6        29.94R FOG
Kennedy INTL   CLOUDY    61  59  93 E3        29.95R
Breezy Point     N/A     57 N/A N/A E5          N/A
Newark/Liberty PTSUNNY   60  57  89 E6        29.94R FOG
Teterboro      PTSUNNY   62  58  86 NE5       29.93R FOG
$$

NYZ177-179-078>081-281300-
LONG ISLAND NEW YORK

CITY           SKY/WX    TMP DP  RH WIND       PRES   REMARKS
Jones Beach      N/A     59 N/A N/A S5          N/A
Matinecock PT  NOT AVBL
Farmingdale    CLOUDY    61  57  87 S7        29.95R
MacArthur/ISP  MOSUNNY   62  57  83 S7        29.95S
Shirley        SUNNY     61  58  90 S6        29.96R
Mt Sinai Harb    N/A    N/A N/A N/A S6          N/A
Westhampton    SUNNY     60  53  77 S7        29.98R
East Hampton     N/A     59  52  78 S6        29.97R
Montauk          N/A     58  52  80 VRB7      29.98S
$$

NYZ052-065-067-281300-
HUDSON VALLEY

CITY           SKY/WX    TMP DP  RH WIND       PRES   REMARKS
White Plains     N/A     59  56  89 E5        29.95R FOG
Larchmont Harb   N/A     57 N/A N/A CALM        N/A
Croton O-T Hud   N/A     61 N/A N/A CALM        N/A
Newburgh       PTSUNNY   63  59  88 VRB6      29.95R
Montgomery     CLOUDY    63  59  87 CALM      29.93R
Poughkeepsie   CLOUDY    62  57  83 S3        29.93R
Albany         CLOUDY    64  56  75 E3        29.93F
$$

NJZ001-105-106-008-010-013-015-019>022-104-281300-
NEW JERSEY

CITY           SKY/WX    TMP DP  RH WIND       PRES   REMARKS
Newark/Liberty PTSUNNY   60  57  89 E6        29.94R FOG
Teterboro      PTSUNNY   62  58  86 NE5       29.93R FOG
Caldwell       SUNNY     64  57  78 E6        29.94R
Somerville     SUNNY     61  58  90 CALM      29.92R
Linden         CLOUDY    59  57  94 CALM      29.94S FOG
Perth Amboy      N/A     57 N/A N/A E7          N/A
Sussex         CLOUDY    63  60  90 CALM      29.94R
Andover          N/A     63  58  83 CALM      29.93S
Trenton        CLOUDY    60  58  92 NE5       29.94R FOG
Millville      CLOUDY    64  60  87 E3        29.91S
Atlantic City  CLOUDY    65  58  78 E5        29.93R
Wrightstown    SUNNY     63  62  96 E3        29.91R
Toms River     CLOUDY    64  60  87 CALM      29.95R
Belmar         SUNNY     63  60  90 E3        29.95R
$$

PAZ047>061-062-071-281300-
EASTERN PENNSYLVANIA

CITY           SKY/WX    TMP DP  RH WIND       PRES   REMARKS
Philadelphia   PTSUNNY   67  61  81 CALM      29.93R
Allentown      SUNNY     63  56  78 CALM      29.93R
Scranton       MOSUNNY   64  55  72 E3        29.91F
$$

CTZ002-004>006-009-010-012-RIZ004-006-007-MAZ004-011-015-281300-
SOUTHERN NEW ENGLAND
 IN CT

CITY           SKY/WX    TMP DP  RH WIND       PRES   REMARKS
Bradley INTL   CLOUDY    59  55  87 S3        29.96R
Hartford       CLOUDY    60  55  83 S5        29.95S
Danbury        CLOUDY    59  57  93 CALM      29.97R
Wtrbury/Oxford PTSUNNY   57  52  82 CALM      29.96R
Bridgeport     CLOUDY    61  56  83 E6        29.96R
Meriden        CLOUDY    59  55  87 CALM      29.96R
New Haven      CLOUDY    60  55  83 E6        29.96R
Chester        PTSUNNY   57  55  94 CALM      29.97R
Groton         CLOUDY    58  53  84 SE5       29.97R
Wilimantic     CLOUDY    59  54  83 CALM      29.97S

 IN RI

CITY           SKY/WX    TMP DP  RH WIND       PRES   REMARKS
Providence     CLOUDY    57  54  89 SW7       29.98R
Block Island   CLOUDY    56  52  86 S7        29.98S
Westerly       CLOUDY    57  52  83 S5        29.98R
 IN MA

CITY           SKY/WX    TMP DP  RH WIND       PRES   REMARKS
Boston         PTSUNNY   59  54  83 SW6       29.98R
Worcester      CLOUDY    57  52  83 CALM      29.97R
Westfield      CLOUDY    59  56  89 CALM      29.95R
Provincetown   CLOUDY    57  50  77 S9        30.00R
Nantucket      SUNNY     56  47  71 S5        29.99R
$$

ANZ330-335-338-340-345-350-353-355-281300-
COASTAL MARINE OBSERVATIONS


STATION/POSITION TIME  SKY/WX   TEMP    WIND        PRES    VSBY  WAVE
                                AIR SEA DIR/SP/G                  HT/PER
                 (UTC)          (F)     (DEG/KT/KT) (MB)    (MI)  (FT/S)
NY HARB ENTRANCE 1050            58 58  160/  6/  8 1013.4          2/ 8
20 S FIRE ISLAND 1150            57 57  150/  6/  8 1013.8          2/ 9
GREAT SOUTH BAY  NOT AVBL
23 SSW MONTAUK P 1050            56 55              1015.0          2/ 8
15 E BARNEGAT LI 1130               59                N/A           2/ 8
HUDSON CANYON    1050            56 55  120/  6/  8 1013.1          2/ 7
KINGS POINT      1142            58 59  210/  3/  4 1013.9
EXECUTION ROCKS  1145            59                   N/A
CENTRAL LI SOUND 1115            56      80/  6/  6   N/A           0
EASTERN LI SOUND NOT AVBL
ROBBINS REEF     1142            58     100/  6/  7 1014.1
$$


>>>>>>>>>>>>>>>>>>>>>>>>>>>> KEY <<<<<<<<<<<<<<<<<<<<<<<<<<<
>                                                          <
>     SKY/WX - Sky Condition/Present Weather               <
>     TMP    - Temperature in Fahrenheit                   <
>     DP     - Dew Point in Fahrenheit                     <
>     RH     - Relative Humidity in Percent                <
>     WIND   - Direction (from) and Speed in MPH           <
>     PRES   - Mean Sea Level Pressure (inches of Hg)      <
>     WCI    - Wind Chill Index                            <
>     VSB    - VISIBILITY IN MILES                         <
>     HX     - HEAT INDEX                                  <
>     TC     - TEMPERATURE IN CELSIUS                      <
>     VRB    - VARIABLE WIND DIRECTION                     <
>                                                          <
>>>>>>>>>>>>>>>>>>>>>>>>>>>> KEY <<<<<<<<<<<<<<<<<<<<<<<<<<<




USA.gov is the U.S. government's official web portal to all federal, state and local government web resources and services.